[[{"header":{"parameterUnit":"m.s-1","parameterCategory":1,"la1":30.2991,"la2":30.254,"lo1":-89.0895,"lo2":-89.0444,"dy":0.0017,"dx":0.0017,"nx":28,"ny":28,"refTime":"2025-08-31T09:00:00:Z","depth":0,"parameterNumber":2,"parameterNumberName":"U-component_of_WINDS"},"data":[0,0,0,0,0,0,0,0,0,0,0,0,0,0,0,0,0,0,0,0,0,0,0,0,0,0,0,0,0,0,0,0,0,0,0,0,0,0,0,0,0,0,0,0,0,0,0,0,0,0,0,0,0,0,0,0,0,0,-3.3994,-3.3994,0,-3.4051,-3.4052,-3.4053,-3.3925,-3.3921,-3.3917,-3.3913,-3.3975,-3.3981,-3.3986,0,0,0,0,0,0,0,0,0,0,0,0,0,-3.3775,-3.378,-3.3994,-3.3994,-3.3995,-3.4051,-3.4052,-3.4053,-3.3925,-3.392,-3.3915,-3.3911,-3.3974,-3.398,-3.3987,0,0,0,0,0,0,0,0,0,0,0,0,0,-3.3855,-3.3781,-3.3993,-3.3938,-3.3934,-3.4051,-3.4052,-3.4053,-3.3927,-3.392,-3.3914,-3.3908,-3.3971,-3.3979,-3.3988,-3.4162,0,0,-3.4013,-3.4016,0,0,0,0,0,0,0,0,-3.3851,-3.3863,-3.3946,-3.3942,-3.3937,-3.3974,-3.3998,-3.409,-3.3928,-3.3929,-3.3913,-3.3905,-3.398,-3.3987,-3.4012,-3.4165,-3.4168,-3.4014,-3.4019,-3.4022,-3.4025,0,0,0,0,0,0,0,-3.3845,-3.386,-3.4016,-3.3947,-3.3942,-3.3911,-3.3916,-3.4015,-3.3989,-3.3929,-3.392,-3.3928,-3.3977,-3.4004,-3.4013,-3.4169,-3.4013,-3.4021,-3.4026,-3.4029,-3.4468,-3.4474,0,0,0,0,0,0,-3.3846,-3.3856,-3.4015,-3.4018,-3.3878,-3.392,-3.3925,-3.3969,-3.3987,-3.3984,-3.3933,-3.3922,-3.3993,-3.4003,-3.4014,-3.422,-3.4022,-3.403,-3.4035,-3.4461,-3.447,-3.4477,0,0,0,0,0,0,-3.3842,-3.3862,-3.4012,-3.3935,-3.3952,-3.393,-3.3981,-3.3973,-3.4,-3.3991,-3.3986,-3.3966,-3.3989,-3.4003,-3.4126,-3.4221,-3.4034,-3.4041,-3.4454,-3.4464,-3.4473,-3.4634,0,0,0,0,0,0,-3.3837,-3.3861,-3.3927,-3.3937,-3.3956,-3.4123,-3.3986,-3.3979,-3.4015,-3.4,-3.402,-3.4018,-3.3985,-3.4115,-3.4134,-3.4229,-3.4048,-3.4445,-3.4458,-3.447,-3.462,-3.4649,-3.4673,0,0,0,0,0,-3.3829,-3.3971,-3.3931,-3.3951,-3.4038,-3.4129,-3.414,-3.4099,-3.4023,-3.4089,-3.4083,-3.4017,-3.4207,-3.4128,-3.415,-3.4248,-3.4439,-3.4454,-3.4469,-3.4609,-3.4643,-3.4672,0,0,0,0,0,0,-3.3974,-3.3971,-3.3927,-3.4076,-3.4104,-3.4107,-3.419,-3.4136,-3.4187,-3.4171,-3.4119,-3.4124,-3.4258,-3.4265,-3.4178,-3.4418,-3.431,-3.433,-3.4409,-3.4441,-3.4467,-3.4464,-3.4054,0,0,0,0,0,-3.4023,-3.4096,-3.409,-3.4222,-3.4238,-3.4212,-3.425,-3.4215,-3.4242,-3.4254,-3.4256,-3.4286,-3.4351,-3.4396,-3.4457,-3.462,-3.4623,-3.4698,-3.4724,-3.4745,-3.4764,-3.4851,-3.4885,-3.4526,-3.4526,-3.4526,0,0,-3.4126,-3.4133,-3.4183,-3.4251,-3.4268,-3.4346,-3.4223,-3.431,-3.4368,-3.4267,-3.4384,-3.4387,-3.4416,-3.456,-3.4624,-3.457,-3.4863,-3.4764,-3.4782,-3.4789,-3.487,-3.4904,-3.4934,-3.4537,-3.4535,-3.4533,0,0,-3.4352,-3.4365,-3.4476,-3.4496,-3.4523,-3.4504,-3.4531,-3.4542,-3.454,-3.4656,-3.4582,-3.465,-3.4765,-3.4788,-3.4816,-3.505,-3.4992,-3.5071,-3.5208,-3.5294,-3.5322,-3.5347,-3.5432,-3.5462,-3.5089,-3.509,-3.509,0,-3.4477,-3.4591,-3.4541,-3.4634,-3.4666,-3.4576,-3.4689,-3.4711,-3.4757,-3.4782,-3.472,-3.4862,-3.4875,-3.5024,-3.5081,-3.5105,-3.5135,-3.507,-3.5322,-3.5346,-3.5369,-3.5449,-3.5481,-3.5099,-3.5098,-3.5097,-3.5096,0,-3.4743,-3.4823,-3.4909,-3.4955,-3.4997,-3.5099,-3.5066,-3.5114,-3.5076,-3.5064,-3.5183,-3.5195,-3.5257,-3.5289,-3.5252,-3.5433,-3.5398,-3.533,-3.5221,-3.5413,-3.5488,-3.5518,-3.5113,-3.5109,-3.5106,-3.5104,0,0,-3.5065,-3.508,-3.5113,-3.5132,-3.5155,-3.5216,-3.5314,-3.5372,-3.5416,-3.545,-3.5532,-3.563,-3.5566,-3.5597,-3.5563,-3.5637,-3.5823,-3.556,-3.556,-3.561,-3.6024,-3.6076,-3.6113,-3.5783,-3.5789,-3.5794,-3.6021,0,-3.5291,-3.5459,-3.5416,-3.5584,-3.5657,-3.5572,-3.5657,-3.5681,-3.5672,-3.5733,-3.5723,-3.5794,-3.5704,-3.5723,-3.5793,-3.5786,-3.5906,-3.5769,-3.5861,-3.5865,-3.5858,-3.6151,-3.6207,-3.6422,-3.605,-3.6055,-3.6059,0,-3.5577,-3.5621,-3.5796,-3.5805,-3.5834,-3.5912,-3.5962,-3.6021,-3.6046,-3.6034,-3.6068,-3.6018,-3.6115,-3.6004,-3.6138,-3.6045,-3.608,-3.6082,-3.6089,-3.6098,-3.5975,-3.617,-3.6489,-3.6523,-3.6104,-3.61,-3.6097,0,-3.5796,-3.5899,-3.6016,-3.6035,-3.6049,-3.6106,-3.6115,-3.6133,-3.617,-3.6214,-3.6238,-3.6293,-3.6324,-3.6367,-3.6334,-3.6255,-3.6474,-3.6359,-3.6468,-3.6469,-3.652,-3.6518,-3.6852,-3.6539,-3.6539,-3.6538,-3.6538,0,-3.6054,-3.6165,-3.6115,-3.6188,-3.6309,-3.6259,-3.638,-3.6379,-3.6396,-3.6467,-3.6396,-3.6465,-3.6415,-3.648,-3.6454,-3.657,-3.6584,-3.6578,-3.657,-3.6585,-3.6586,-3.6609,-3.6594,-3.6547,-3.6545,-3.6543,-3.6542,0,-3.6321,-3.6292,-3.6415,-3.6417,-3.642,-3.651,-3.6512,-3.6579,-3.6564,-3.6655,-3.6673,-3.665,-3.6723,-3.6692,-3.6769,-3.6751,-3.69,-3.6872,-3.6892,-3.6885,-3.6996,-3.6987,-3.7358,-3.7405,-3.7061,-3.7064,-3.7067,0,-3.6488,-3.6571,-3.6582,-3.6624,-3.6637,-3.6706,-3.6743,-3.6696,-3.6738,-3.6772,-3.6836,-3.6901,-3.6952,-3.7071,-3.7062,-3.712,-3.7094,-3.7219,-3.7102,-3.7115,-3.7097,-3.7094,-3.7102,-3.7244,-3.7248,-3.7251,-3.7254,0,-3.6789,-3.677,-3.6826,-3.6878,-3.6924,-3.6963,-3.6996,-3.7034,-3.6988,-3.704,-3.7112,-3.7151,-3.7228,-3.7295,-3.7346,-3.7355,-3.7299,-3.729,-3.7319,-3.7337,-3.7346,-3.7344,-3.6958,-3.7283,-3.728,-3.7278,-3.7276,-3.7275,-3.7012,-3.7082,-3.71,-3.7165,-3.7184,-3.7215,-3.7279,-3.7271,-3.733,-3.7389,-3.7357,-3.7442,-3.7463,-3.7526,-3.7543,-3.7608,-3.7559,-3.76,-3.7611,-3.7623,-3.7638,-3.7333,-3.7617,-3.7617,-3.7616,-3.7615,-3.7614,0,-3.731,-3.7317,-3.7377,-3.7424,-3.7476,-3.7414,-3.7447,-3.7494,-3.7569,-3.7594,-3.7644,-3.7727,-3.7791,-3.7786,-3.7844,-3.7898,-3.7874,-3.7915,-3.7912,-3.7915,-3.7678,-3.7648,-3.7934,-3.7934,-3.7934,-3.7934,-3.7934,-3.7934,-3.7472,-3.7586,-3.7569,-3.7693,-3.7698,-3.778,-3.7804,-3.7833,-3.7852,-3.7948,-3.8,-3.7995,-3.8008,-3.8067,-3.8123,-3.8119,-3.8145,-3.8198,-3.8185,-3.7964,-3.7932,-3.7902,-3.7874,-3.8203,-3.8203,-3.8417,-3.8419,-3.8421]},{"header":{"parameterUnit":"m.s-1","parameterCategory":1,"la1":30.2991,"la2":30.254,"lo1":-89.0895,"lo2":-89.0444,"dy":0.0017,"dx":0.0017,"nx":28,"ny":28,"refTime":"2025-08-31T09:00:00:Z","depth":0,"parameterNumber":3,"parameterNumberName":"V-component_of_WINDS"},"data":[0,0,0,0,0,0,0,0,0,0,0,0,0,0,0,0,0,0,0,0,0,0,0,0,0,0,0,0,0,0,0,0,0,0,0,0,0,0,0,0,0,0,0,0,0,0,0,0,0,0,0,0,0,0,0,0,0,0,-1.9885,-1.9884,0,-1.9866,-1.9866,-1.9865,-1.9809,-1.9808,-1.9807,-1.9806,-1.9787,-1.9788,-1.9788,0,0,0,0,0,0,0,0,0,0,0,0,0,-1.9871,-1.9872,-1.9885,-1.9884,-1.9884,-1.9866,-1.9866,-1.9865,-1.981,-1.9808,-1.9807,-1.9805,-1.9787,-1.9788,-1.9788,0,0,0,0,0,0,0,0,0,0,0,0,0,-1.9867,-1.9872,-1.9885,-1.9854,-1.9851,-1.9866,-1.9866,-1.9865,-1.981,-1.9808,-1.9806,-1.9804,-1.9787,-1.9788,-1.9788,-1.9831,0,0,-1.9791,-1.9792,0,0,0,0,0,0,0,0,-1.9868,-1.9868,-1.9859,-1.9856,-1.9853,-1.9838,-1.9854,-1.9854,-1.981,-1.9826,-1.9806,-1.9804,-1.9806,-1.9805,-1.9805,-1.9831,-1.983,-1.9792,-1.9792,-1.9793,-1.9793,0,0,0,0,0,0,0,-1.9868,-1.9868,-1.9877,-1.9859,-1.9855,-1.9841,-1.9838,-1.9854,-1.9826,-1.9824,-1.982,-1.9819,-1.9804,-1.9805,-1.9805,-1.983,-1.9792,-1.9792,-1.9793,-1.9793,-1.9887,-1.9889,0,0,0,0,0,0,-1.9873,-1.9869,-1.9878,-1.9877,-1.9856,-1.9843,-1.984,-1.9845,-1.9826,-1.9821,-1.982,-1.9816,-1.9804,-1.9803,-1.9804,-1.9852,-1.9793,-1.9793,-1.9794,-1.9885,-1.9888,-1.989,0,0,0,0,0,0,-1.9873,-1.9874,-1.9878,-1.9872,-1.9871,-1.9845,-1.9851,-1.9845,-1.9846,-1.9823,-1.9818,-1.9826,-1.9802,-1.9802,-1.9825,-1.985,-1.9794,-1.9795,-1.9883,-1.9886,-1.9889,-1.9949,0,0,0,0,0,0,-1.9872,-1.9874,-1.9891,-1.9872,-1.9872,-1.99,-1.9852,-1.9846,-1.9848,-1.9842,-1.9827,-1.9823,-1.9801,-1.9823,-1.9826,-1.985,-1.9796,-1.9881,-1.9884,-1.9888,-1.9944,-1.9953,-1.9961,0,0,0,0,0,-1.9872,-1.9909,-1.9892,-1.9893,-1.9892,-1.9902,-1.9901,-1.9875,-1.985,-1.9866,-1.9851,-1.9823,-1.9847,-1.9826,-1.9828,-1.9854,-1.9879,-1.9883,-1.9888,-1.9941,-1.9951,-1.9961,0,0,0,0,0,0,-1.9931,-1.9906,-1.9887,-1.9919,-1.9913,-1.9892,-1.9912,-1.9888,-1.9889,-1.9884,-1.9851,-1.9848,-1.9875,-1.9867,-1.9844,-1.9894,-1.9858,-1.9863,-1.9898,-1.9908,-1.9916,-1.9918,-1.9796,0,0,0,0,0,-1.9948,-1.9958,-1.9935,-1.9966,-1.9964,-1.9938,-1.9942,-1.9922,-1.9915,-1.9912,-1.9898,-1.9892,-1.9898,-1.9903,-1.9907,-1.9943,-1.9938,-1.9961,-1.997,-1.9977,-1.9981,-1.9998,-2.0008,-1.9904,-1.9904,-1.9904,0,0,-1.9982,-1.997,-1.9978,-1.9977,-1.997,-1.9981,-1.9937,-1.9951,-1.9958,-1.9914,-1.9934,-1.9924,-1.9915,-1.9944,-1.9956,-1.9937,-2.0009,-1.9982,-1.9988,-1.9988,-2.0003,-2.0013,-2.0022,-1.9907,-1.9906,-1.9906,0,0,-2.0051,-2.0043,-2.0066,-2.006,-2.005,-2.0033,-2.0038,-2.0021,-2.0013,-2.0032,-1.9999,-2.0007,-2.0019,-2.0013,-2.0012,-2.0077,-2.0051,-2.0079,-2.0122,-2.0139,-2.0147,-2.0155,-2.0177,-2.0185,-2.0084,-2.0084,-2.0084,0,-2.0095,-2.0111,-2.0082,-2.0097,-2.0097,-2.0057,-2.008,-2.0076,-2.0068,-2.0068,-2.0048,-2.006,-2.0052,-2.0078,-2.0094,-2.0094,-2.0099,-2.0081,-2.0149,-2.0155,-2.0162,-2.0182,-2.0191,-2.0087,-2.0087,-2.0087,-2.0086,0,-2.0165,-2.0176,-2.0196,-2.0189,-2.0191,-2.0211,-2.0184,-2.019,-2.017,-2.0154,-2.0174,-2.0162,-2.0162,-2.0167,-2.0148,-2.019,-2.0179,-2.0155,-2.0118,-2.0175,-2.0194,-2.0202,-2.0092,-2.0091,-2.009,-2.0089,0,0,-2.0271,-2.0246,-2.0254,-2.0249,-2.0235,-2.0242,-2.026,-2.026,-2.0265,-2.026,-2.0273,-2.0283,-2.026,-2.0258,-2.0238,-2.0253,-2.0304,-2.0226,-2.0225,-2.024,-2.0349,-2.0367,-2.0377,-2.0287,-2.0288,-2.0289,-2.0349,0,-2.0335,-2.0363,-2.0336,-2.0369,-2.0378,-2.034,-2.0355,-2.0347,-2.0333,-2.0339,-2.0323,-2.033,-2.0299,-2.0297,-2.0311,-2.0295,-2.0325,-2.029,-2.0298,-2.0299,-2.0301,-2.0387,-2.0406,-2.0463,-2.0356,-2.0358,-2.0358,0,-2.0413,-2.0412,-2.0445,-2.0427,-2.043,-2.0444,-2.0441,-2.0447,-2.0437,-2.0426,-2.0424,-2.0398,-2.0413,-2.0379,-2.0398,-2.0375,-2.0377,-2.0369,-2.0371,-2.037,-2.0332,-2.0388,-2.0481,-2.049,-2.037,-2.0369,-2.0368,0,-2.0486,-2.0492,-2.0512,-2.051,-2.0489,-2.05,-2.0492,-2.048,-2.0481,-2.0479,-2.0479,-2.0479,-2.0479,-2.0479,-2.0454,-2.0431,-2.0476,-2.044,-2.0467,-2.0467,-2.0478,-2.0477,-2.0572,-2.048,-2.048,-2.048,-2.048,0,-2.056,-2.0581,-2.0544,-2.0557,-2.058,-2.0549,-2.0573,-2.0561,-2.0551,-2.056,-2.0527,-2.0536,-2.0503,-2.0509,-2.049,-2.0508,-2.0509,-2.05,-2.0494,-2.0502,-2.0503,-2.0502,-2.0497,-2.0482,-2.0482,-2.0481,-2.0481,0,-2.0644,-2.0621,-2.064,-2.0619,-2.0614,-2.0632,-2.0613,-2.0624,-2.0607,-2.0619,-2.062,-2.0594,-2.0599,-2.0574,-2.0575,-2.0562,-2.059,-2.0578,-2.0593,-2.0589,-2.0617,-2.0615,-2.0715,-2.0726,-2.0627,-2.0628,-2.0629,0,-2.0693,-2.0708,-2.0688,-2.0692,-2.0685,-2.0692,-2.0692,-2.0663,-2.0665,-2.0654,-2.0666,-2.0668,-2.0668,-2.0677,-2.0658,-2.0658,-2.0646,-2.0681,-2.0646,-2.0653,-2.0645,-2.0644,-2.0645,-2.0688,-2.0689,-2.069,-2.0691,0,-2.0781,-2.0768,-2.077,-2.0768,-2.077,-2.0767,-2.0761,-2.0766,-2.0734,-2.0738,-2.0742,-2.0742,-2.0742,-2.0744,-2.074,-2.0732,-2.0706,-2.0702,-2.0708,-2.0716,-2.0724,-2.0719,-2.0612,-2.07,-2.0699,-2.0698,-2.0698,-2.0698,-2.0848,-2.086,-2.0847,-2.085,-2.0843,-2.0838,-2.0847,-2.0831,-2.0834,-2.0831,-2.0813,-2.0821,-2.0809,-2.0801,-2.0795,-2.08,-2.0784,-2.0793,-2.0795,-2.0797,-2.0802,-2.0724,-2.0799,-2.0799,-2.0799,-2.0799,-2.0798,0,-2.0934,-2.0923,-2.0926,-2.092,-2.0922,-2.0897,-2.089,-2.0893,-2.09,-2.0891,-2.0892,-2.0896,-2.0898,-2.0879,-2.0878,-2.0885,-2.0873,-2.0886,-2.0885,-2.0883,-2.0817,-2.0812,-2.0895,-2.0895,-2.0895,-2.0895,-2.0895,-2.0895,-2.0978,-2.0996,-2.0982,-2.0995,-2.0984,-2.0991,-2.0989,-2.0984,-2.0977,-2.0983,-2.0984,-2.0971,-2.0958,-2.0956,-2.0956,-2.095,-2.0951,-2.0968,-2.0958,-2.0897,-2.0888,-2.0879,-2.0873,-2.0968,-2.0969,-2.1023,-2.1023,-2.1024]}]]